sat.trackr.live / text

‹ back to catalog

BLUEWALKER-3

NORAD 53807 · 2022-111AL

PAYLOAD ACTIVE UNKNOWN

§ Identity

Operator
Country
US
Launch date
2022-09-11
Launch site
AFETR
Launch vehicle
Mass (kg)
RCS (m²)

External: N2YO · Heavens-Above · Gunter

§ Orbital elements

Epoch: 2026-05-24T09:32:37.217472Z

Period
93.63 min
Inclination
53.2278°
Eccentricity
0.0007388
Mean motion
15.37934253 rev/d
Perigee alt
447.2 km
Apogee alt
457.3 km
Semi-major
6,830.4 km
B*
1.4847e-4
RAAN
145.6287°
Arg perigee
97.1137°
Mean anomaly
263.0708°
Rev number
20,654

§ Raw data

BLUEWALKER-31 53807U 22111AL  26144.39765298  .00005232  00000+0  14847-3 0  99942 53807  53.2278 145.6287 0007388  97.1137 263.0708 15.37934253206544

JSON: /api/v1/satellites/53807 · /tle

For live sub-satellite position, see the globe view (requires WebGL).

§ Visibility from observer

Set your observer location to see the next 7 days of passes ≥ 10°. The values pass through the URL so the page stays shareable.

No JS? Fill the form by hand. The geolocation button needs JavaScript.

§ Radio — SatNOGS DB

ModeDescriptionDownlinkUplink
QPSK Channel 62 759.700 MHz
QPSK Downlink 1 2.026 GHz
QPSK Downlink 2 2.210 GHz
GMSK Mode S TTC CCSDS 2.245 GHz
GFSK Mode U 2k4 TLM 437.500 MHz
FM Service 1 763.000 MHz
FM Service 2 892.000 MHz
FM UHD1 400.575 MHz
GFSK Mode U 9k6 TLM (inactive) 437.500 MHz

9 transmitters · refreshed weekly from db.satnogs.org